www.pogodaiklimat.ru

Погода и климат >> Архив погоды >> Ирак >> Басра


ПОГОДА в Басре

  • Прогноз погоды в Басре
  • Монитор погоды в Басре

АРХИВ ПОГОДЫ в Басре

Время (UTC), дата Ветер
(напр.,м/с)
 
Видим.   Явления Облачность Т
(С)
Тd
(С)
f
(%)
Тe
(С)
Тes
(С)
Комфортность P
(гПа)
Po
(гПа)
Тmin
(С)
Tmax
(С)
R
(мм)
R24
(мм)
S
(см)
06 19.08 З 2 10 км ясно +38.2 +16.6 28 +40 +52 опасность
солнечного
удара
1004.2 1004.0 +29.4
09 19.08 С 4 10 км ясно +43.4 +12.2 16 +43 +56 опасность
перегрева
1003.7 1003.5
12 19.08 СЗ 5 10 км ясно +45.6 +11.4 14 +45 +50 опасность
перегрева
1002.8 1002.6
15 19.08 СЗ 4 10 км ясно +42.8 +12.7 17 +42 +42 опасность
перегрева
1002.9 1002.7
18 19.08 СЗ 3 10 км ясно +38.8 +13.4 22 +39 +39 очень
жарко
1004.0 1003.8 +46.0
21 19.08 СЗ 3 10 км ясно +35.6 +15.8 31 +38 +38 очень
душно
1004.1 1003.9
00 20.08 З 2 10 км ясно +33.0 +17.9 41 +37 +37 очень
душно
1003.1 1002.9
03 20.08 СЗ 3 10 км ясно +31.0 +12.5 32 +32 +32 жарко 1004.3 1004.1
06 20.08 З 2 10 км ясно +38.2 +13.9 24 +39 +50 очень
душно
1005.2 1005.0 +30.5
09 20.08 СЗ 3 10 км ясно +45.0 +10.7 13 +44 +60 опасность
перегрева
1004.5 1004.3
12 20.08 СЗ 4 10 км ясно +46.4 +8.7 11 +45 +51 опасность
перегрева
1003.0 1002.8
15 20.08 СЗ 3 10 км ясно +44.0 +11.7 15 +43 +43 опасность
перегрева
1002.6 1002.4
18 20.08 штиль 0 10 км ясно +38.0 +14.0 24 +38 +38 очень
жарко
1003.1 1002.9 +47.4
21 20.08 СЗ 3 10 км ясно +35.6 +8.2 19 +34 +34 очень
жарко
1002.8 1002.6
03 21.08 штиль 0 10 км ясно +30.6 +15.9 41 +33 +34 душно 1002.9 1002.7
06 21.08 СЗ 3 10 км ясно +38.0 +14.0 24 +38 +48 очень
жарко
1004.0 1003.8 +30.0
09 21.08 С 2 10 км ясно +46.2 +11.4 13 +45 +65 опасность
перегрева
1003.0 1002.8
15 21.08 СЗ 2 10 км ясно +45.8 +7.3 10 +43 +43 опасность
перегрева
1000.7 1000.5
18 21.08 З 2 10 км ясно +40.0 +12.5 20 +40 +40 очень
душно
1001.4 1001.2 +48.5
21 21.08 З 4 10 км ясно +37.0 +9.7 19 +36 +36 очень
жарко
1001.6 1001.4
00 22.08 СЗ 5 10 км ясно +34.0 +15.8 34 +36 +36 душно 1001.1 1000.9
03 22.08 штиль 0 10 км ясно +31.0 +15.8 40 +34 +34 душно 1001.7 1001.5
06 22.08 СЗ 2 10 км ясно +36.8 +14.0 26 +38 +49 очень
душно
1002.5 1002.3 +30.5
09 22.08 СЗ 3 10 км ясно +43.4 +11.0 15 +42 +59 опасность
перегрева
1001.5 1001.3
15 22.08 СЗ 4 10 км ясно +43.6 +9.0 13 +42 +42 опасность
перегрева
999.9 999.7
21 22.08 З 5 10 км ясно +35.4 +9.5 21 +34 +34 очень
жарко
1001.2 1001.0
00 23.08 З 5 10 км ясно +31.6 +9.5 26 +31 +31 жарко 1000.8 1000.6
03 23.08 З 3 10 км ясно +29.4 +12.5 35 +30 +31 жарко 1001.4 1001.2
06 23.08 СЗ 3 10 км ясно +35.6 +11.0 23 +35 +45 очень
жарко
1002.4 1002.2 +29.0
09 23.08 С 5 10 км 1/0
[Ac trans]
+41.4 +12.5 18 +41 +51 опасность
перегрева
1001.5 1001.3
12 23.08 СЗ 4 10 км 4/0
[Ac trans]
+45.0 +11.3 14 +44 +49 опасность
перегрева
1000.4 1000.2
15 23.08 С 3 10 км ясно +43.4 +13.5 17 +43 +43 опасность
перегрева
1000.0 999.8
18 23.08 ЮВ 2 10 км ясно +36.6 +21.1 41 +44 +44 опасность
перегрева
1001.7 1001.5 +45.5
21 23.08 ЮВ 2 10 км ясно +33.2 +22.8 55 +43 +43 опасность
перегрева
1002.2 1002.0
00 24.08 Ю 3 10 км ясно +32.4 +25.5 67 +47 +47 опасность
перегрева
1002.3 1002.1
03 24.08 ЮВ 2 10 км ясно +31.2 +28.2 84 +52 +52 опасность
перегрева
1003.9 1003.7
06 24.08 Ю 2 6000 м мгла ясно +34.2 +28.5 72 +56 +68 опасность
перегрева
1004.8 1004.6 +31.0
09 24.08 штиль 0 10 км ясно +41.0 +25.2 41 +54 +80 опасность
перегрева
1003.6 1003.4
12 24.08 ЮВ 4 10 км ясно +45.4 +14.3 17 +46 +53 опасность
перегрева
1001.9 1001.7
15 24.08 ЮВ 4 10 км ясно +43.0 +13.6 18 +43 +43 опасность
перегрева
1001.6 1001.4
18 24.08 Ю 3 10 км ясно +37.2 +20.4 38 +43 +43 опасность
перегрева
1002.8 1002.6 +46.4
21 24.08 штиль 0 10 км ясно +33.4 +18.0 40 +38 +38 очень
душно
1002.7 1002.5
03 25.08 Ю 2 5000 м мгла 3/0
[Ac trans]
+31.2 +27.0 78 +49 +49 опасность
перегрева
1002.9 1002.7
06 25.08 Ю 2 10 км ясно +36.6 +23.9 48 +48 +59 опасность
перегрева
1003.7 1003.5 +31.0
09 25.08 штиль 0 10 км ясно +46.4 +16.3 18 +48 +74 опасность
перегрева
1002.2 1002.0
12 25.08 СЗ 2 10 км 1/1 1200 м
[Cu med, cong]
+48.8 +6.0 8 +46 +55 опасность
перегрева
1000.4 1000.2
15 25.08 СЗ 2 10 км 1/1 1200 м
[Cu med, cong]
+45.0 +14.1 17 +45 +45 опасность
перегрева
1000.3 1000.1
18 25.08 штиль 0 10 км ясно +38.5 +14.8 25 +40 +40 очень
душно
1001.4 1001.2 +49.2
21 25.08 СЗ 2 10 км ясно +35.0 +14.0 28 +36 +36 очень
жарко
1001.2 1001.0
00 26.08 штиль 0 10 км ясно +32.6 +13.5 31 +34 +34 очень
жарко
1000.6 1000.4
03 26.08 штиль 0 10 км ясно +31.5 +15.5 38 +34 +34 душно 1001.3 1001.1

 

Местоположение метеостанции Басра (Ирак): широта 30.57 долгота 47.78 высота над уровнем моря 2 м.

В архиве по умолчанию представлена погода в Басре за последнюю неделю. Архивные данные за месяц целиком и за предыдущие месяцы, начиная с января 2011 года, Вы можете получить, выбрав интересующий диапазон дат из раскрывающегося списка и нажав кнопку "Ввод!".


*Определитесь, кто Вы:
робот инопланетянин человек

Внимание! Время в таблицах - всемирное. Для получения местного времени необходимо прибавить поправку, которая равна 3 ч.

Смотрите также архив погоды в соседних городах и на ближайших метеорологических станциях:

Погода в Басре аэропорт (Ирак) (6 км)
Погода в Абадане (Иран) (50 км)
Погода в Абдали (Кувейт) (55 км)
Погода на Метеостанции Sabriyah (Кувейт) (91 км)
Погода на Метеостанции Mintribah (Кувейт) (92 км)
Погода в Эль-Фао (Ирак) (95 км)
Погода на Бубияне (Кувейт) (106 км)
Погода на Метеостанции Jal Aliyah (Кувейт) (108 км)
Погода в Ахвазе (Иран) (120 км)
Погода Остров Файлака (Кувейт) (131 км)

Пояснения к столбцам:

Ветер - указаны скорость ветра в м/с - средняя за 10 мин, порывы в срок и между сроками (в фигурных скобках) и направление, откуда дует ветер: С - северный, СВ - северо-восточный, В - восточный, ЮВ - юго-восточный, Ю - южный, ЮЗ - юго-западный, З - западный, СЗ - северо-западный.
Видимость - горизонтальная дальность видимости в метрах или километрах. При видимости от 1 до 10 км при отсутствии осадков обычно наблюдается дымка, при ухудшении видимости до 1 км и менее - туман. В сухую погоду видимость может ухудшаться дымом, пылью или мглою.
Явления - указаны атмосферные явления, наблюдавшиеся в срок или в последний час перед сроком; фигурными скобками обозначены явления, наблюдавшиеся между сроками (за 1-3 часа до срока); квадратными скобками обозначены град или гололедные отложения с указанием их диаметра в мм.
Облачность - указаны через наклонную черту общая и нижняя облачность в баллах и высота нижней границы облаков в метрах; квадратными скобками обозначены формы облаков: Ci - перистые, Cs - перисто-слоистые, Cc - перисто-кучевые, Ac - высококучевые, As - высокослоистые, Sc - слоисто-кучевые, Ns - слоисто-дождевые, Cu - кучевые, Cb - кучево-дождевые. Подробнее классификацию облаков см. в Атласе облаков (PDF).
T - Температура воздуха - температура, измеренная на высоте 2 м над землей.
Td - Температура точки росы - температура, при понижении до которой содержащийся в воздухе водяной пар достигнет насыщения.
f - Относительная влажность воздуха - влажноcть воздуха, измеренная на высоте 2 м над землей.
Te - Эффективная температура - температура, которую ощущает одетый по сезону человек в тени. Характеристика душности погоды. При расчете учитывается влияние влажности воздуха и скорости ветра на теплоощущения человека.
Tes - Эффективная температура на солнце - температура, которую ощущает человек, с поправкой на солнечный нагрев. Характеристика знойности погоды. Зависит от высоты солнца над горизонтом, облачности и скорости ветра. Ночью, в пасмурную погоду, а также при ветре 12 м/с и более поправка равна нулю.
P - Атмосферное давление - приведенное к уровню моря атмосферное давление.
Po - Атмосферное давление - измеренное на уровне метеостанции атмосферное давление.
Tmin - Минимальная температура - минимум температуры воздуха на высоте 2 м над землей.
Tmax - Максимальная температура - максимум температуры воздуха на высоте 2 м над землей.
R - Количество осадков - Количество выпавших осадков за период времени, мм. При наведении курсора мыши на число - период времени, за который выпало указанное количество осадков.
R24 - Количество осадков - Количество выпавших осадков за 24 часа, мм.
S - Снежный покров - Высота снежного покрова, см. При наведении курсора мыши на число - состояние снежного покрова и степень покрытия местности в баллах.